#Datum;Uhrzeit;WR;Pac;DaySum;Status;WR;Pac;DaySum;Status;Pdc1;Udc;Temp;WR;Pac;DaySum;Status;Pdc1;Udc;Temp;WR;Pac;DaySum;Status;Pdc1;Udc;Temp;WR;Pac;DaySum;Status;Pdc1;Pdc2;Udc1;Udc2;Temp;WR;Pac;DaySum;Status;Pdc1;Pdc2;Udc1;Udc2;Temp;WR;Pac;DaySum;Status;Pdc1;Udc;Temp;WR;Pac;DaySum;Status;Pdc1;Udc;Temp;WR;Pac;DaySum;Status;Pdc1;Udc;Temp
03.01.19;23:55:00;1;448;13849;0;2;0;3077;0;0;0;0;3;0;1980;0;0;0;0;4;0;2260;0;0;0;0;5;0;5813;0;0;0;0;0;0;6;0;4294;0;0;0;0;0;0;7;0;3014;0;0;0;0;8;0;3595;0;0;0;0;9;0;1820;0;0;0;0
03.01.19;23:50:00;1;420;13811;0;2;0;3077;0;0;0;0;3;0;1980;0;0;0;0;4;0;2260;0;0;0;0;5;0;5813;0;0;0;0;0;0;6;0;4294;0;0;0;0;0;0;7;0;3014;0;0;0;0;8;0;3595;0;0;0;0;9;0;1820;0;0;0;0
03.01.19;23:45:00;1;605;13774;0;2;0;3077;0;0;0;0;3;0;1980;0;0;0;0;4;0;2260;0;0;0;0;5;0;5813;0;0;0;0;0;0;6;0;4294;0;0;0;0;0;0;7;0;3014;0;0;0;0;8;0;3595;0;0;0;0;9;0;1820;0;0;0;0
03.01.19;23:40:00;1;816;13713;0;2;0;3077;0;0;0;0;3;0;1980;0;0;0;0;4;0;2260;0;0;0;0;5;0;5813;0;0;0;0;0;0;6;0;4294;0;0;0;0;0;0;7;0;3014;0;0;0;0;8;0;3595;0;0;0;0;9;0;1820;0;0;0;0
03.01.19;23:35:00;1;453;13671;0;2;0;3077;0;0;0;0;3;0;1980;0;0;0;0;4;0;2260;0;0;0;0;5;0;5813;0;0;0;0;0;0;6;0;4294;0;0;0;0;0;0;7;0;3014;0;0;0;0;8;0;3595;0;0;0;0;9;0;1820;0;0;0;0
03.01.19;23:30:00;1;489;13633;0;2;0;3077;0;0;0;0;3;0;1980;0;0;0;0;4;0;2260;0;0;0;0;5;0;5813;0;0;0;0;0;0;6;0;4294;0;0;0;0;0;0;7;0;3014;0;0;0;0;8;0;3595;0;0;0;0;9;0;1820;0;0;0;0
03.01.19;23:25:00;1;877;13593;0;2;0;3077;0;0;0;0;3;0;1980;0;0;0;0;4;0;2260;0;0;0;0;5;0;5813;0;0;0;0;0;0;6;0;4294;0;0;0;0;0;0;7;0;3014;0;0;0;0;8;0;3595;0;0;0;0;9;0;1820;0;0;0;0
03.01.19;23:20:00;1;469;13528;0;2;0;3077;0;0;0;0;3;0;1980;0;0;0;0;4;0;2260;0;0;0;0;5;0;5813;0;0;0;0;0;0;6;0;4294;0;0;0;0;0;0;7;0;3014;0;0;0;0;8;0;3595;0;0;0;0;9;0;1820;0;0;0;0
03.01.19;23:15:00;1;483;13488;0;2;0;3077;0;0;0;0;3;0;1980;0;0;0;0;4;0;2260;0;0;0;0;5;0;5813;0;0;0;0;0;0;6;0;4294;0;0;0;0;0;0;7;0;3014;0;0;0;0;8;0;3595;0;0;0;0;9;0;1820;0;0;0;0
03.01.19;23:10:00;1;670;13449;0;2;0;3077;0;0;0;0;3;0;1980;0;0;0;0;4;0;2260;0;0;0;0;5;0;5813;0;0;0;0;0;0;6;0;4294;0;0;0;0;0;0;7;0;3014;0;0;0;0;8;0;3595;0;0;0;0;9;0;1820;0;0;0;0
03.01.19;23:05:00;1;899;13387;0;2;0;3077;0;0;0;0;3;0;1980;0;0;0;0;4;0;2260;0;0;0;0;5;0;5813;0;0;0;0;0;0;6;0;4294;0;0;0;0;0;0;7;0;3014;0;0;0;0;8;0;3595;0;0;0;0;9;0;1820;0;0;0;0
03.01.19;23:00:00;1;506;13343;0;2;0;3077;0;0;0;0;3;0;1980;0;0;0;0;4;0;2260;0;0;0;0;5;0;5813;0;0;0;0;0;0;6;0;4294;0;0;0;0;0;0;7;0;3014;0;0;0;0;8;0;3595;0;0;0;0;9;0;1820;0;0;0;0
03.01.19;22:55:00;1;489;13301;0;2;0;3077;0;0;0;0;3;0;1980;0;0;0;0;4;0;2260;0;0;0;0;5;0;5813;2;0;0;0;0;0;6;0;4294;2;0;0;0;0;0;7;0;3014;0;0;0;0;8;0;3595;0;0;0;0;9;0;1820;0;0;0;0
03.01.19;22:50:00;1;903;13260;0;2;0;3077;0;0;0;0;3;0;1980;0;0;0;0;4;0;2260;0;0;0;0;5;0;5813;2;0;0;0;0;0;6;0;4294;2;0;0;0;0;0;7;0;3014;0;0;0;0;8;0;3595;0;0;0;0;9;0;1820;0;0;0;0
03.01.19;22:45:00;1;477;13191;0;2;0;3077;0;0;0;0;3;0;1980;0;0;0;0;4;0;2260;0;0;0;0;5;0;5813;2;0;0;0;0;0;6;0;4294;2;0;0;0;0;0;7;0;3014;0;0;0;0;8;0;3595;0;0;0;0;9;0;1820;0;0;0;0
03.01.19;22:40:00;1;475;13151;0;2;0;3077;0;0;0;0;3;0;1980;0;0;0;0;4;0;2260;0;0;0;0;5;0;5813;2;0;0;0;0;0;6;0;4294;2;0;0;0;0;0;7;0;3014;0;0;0;0;8;0;3595;0;0;0;0;9;0;1820;0;0;0;0
03.01.19;22:35:00;1;691;13112;0;2;0;3077;0;0;0;0;3;0;1980;0;0;0;0;4;0;2260;0;0;0;0;5;0;5813;2;0;0;0;0;0;6;0;4294;2;0;0;0;0;0;7;0;3014;0;0;0;0;8;0;3595;0;0;0;0;9;0;1820;0;0;0;0
03.01.19;22:30:00;1;601;13043;0;2;0;3077;0;0;0;0;3;0;1980;0;0;0;0;4;0;2260;0;0;0;0;5;0;5813;2;0;0;0;0;0;6;0;4294;2;0;0;0;0;0;7;0;3014;0;0;0;0;8;0;3595;0;0;0;0;9;0;1820;0;0;0;0
03.01.19;22:25:00;1;648;12994;0;2;0;3077;0;0;0;0;3;0;1980;0;0;0;0;4;0;2260;0;0;0;0;5;0;5813;2;0;0;0;0;0;6;0;4294;2;0;0;0;0;0;7;0;3014;0;0;0;0;8;0;3595;0;0;0;0;9;0;1820;0;0;0;0
03.01.19;22:20:00;1;788;12938;0;2;0;3077;0;0;0;0;3;0;1980;0;0;0;0;4;0;2260;0;0;0;0;5;0;5813;2;0;0;0;0;0;6;0;4294;2;0;0;0;0;0;7;0;3014;0;0;0;0;8;0;3595;0;0;0;0;9;0;1820;0;0;0;0
03.01.19;22:15:00;1;1195;12872;0;2;0;3077;0;0;0;0;3;0;1980;0;0;0;0;4;0;2260;0;0;0;0;5;0;5813;2;0;0;0;0;0;6;0;4294;2;0;0;0;0;0;7;0;3014;0;0;0;0;8;0;3595;0;0;0;0;9;0;1820;0;0;0;0
03.01.19;22:10:00;1;1474;12777;0;2;0;3077;0;0;0;0;3;0;1980;0;0;0;0;4;0;2260;0;0;0;0;5;0;5813;2;0;0;0;0;0;6;0;4294;2;0;0;0;0;0;7;0;3014;0;0;0;0;8;0;3595;0;0;0;0;9;0;1820;0;0;0;0
03.01.19;22:05:00;1;754;12656;0;2;0;3077;0;0;0;0;3;0;1980;0;0;0;0;4;0;2260;0;0;0;0;5;0;5813;2;0;0;0;0;0;6;0;4294;2;0;0;0;0;0;7;0;3014;0;0;0;0;8;0;3595;0;0;0;0;9;0;1820;0;0;0;0
03.01.19;22:00:00;1;954;12594;0;2;0;3077;0;0;0;0;3;0;1980;0;0;0;0;4;0;2260;0;0;0;0;5;0;5813;2;0;0;0;0;0;6;0;4294;2;0;0;0;0;0;7;0;3014;0;0;0;0;8;0;3595;0;0;0;0;9;0;1820;0;0;0;0
03.01.19;21:55:00;1;731;12506;0;2;0;3077;0;0;0;0;3;0;1980;0;0;0;0;4;0;2260;0;0;0;0;5;0;5813;2;0;0;0;0;0;6;0;4294;2;0;0;0;0;0;7;0;3014;0;0;0;0;8;0;3595;0;0;0;0;9;0;1820;0;0;0;0
03.01.19;21:50:00;1;662;12446;0;2;0;3077;0;0;0;0;3;0;1980;0;0;0;0;4;0;2260;0;0;0;0;5;0;5813;2;0;0;0;0;0;6;0;4294;2;0;0;0;0;0;7;0;3014;0;0;0;0;8;0;3595;0;0;0;0;9;0;1820;0;0;0;0
03.01.19;21:45:00;1;664;12390;0;2;0;3077;0;0;0;0;3;0;1980;0;0;0;0;4;0;2260;0;0;0;0;5;0;5813;2;0;0;0;0;0;6;0;4294;2;0;0;0;0;0;7;0;3014;0;0;0;0;8;0;3595;0;0;0;0;9;0;1820;0;0;0;0
03.01.19;21:40:00;1;1032;12335;0;2;0;3077;0;0;0;0;3;0;1980;0;0;0;0;4;0;2260;0;0;0;0;5;0;5813;2;0;0;0;0;0;6;0;4294;2;0;0;0;0;0;7;0;3014;0;0;0;0;8;0;3595;0;0;0;0;9;0;1820;0;0;0;0
03.01.19;21:35:00;1;623;12258;0;2;0;3077;0;0;0;0;3;0;1980;0;0;0;0;4;0;2260;0;0;0;0;5;0;5813;2;0;0;0;0;0;6;0;4294;2;0;0;0;0;0;7;0;3014;0;0;0;0;8;0;3595;0;0;0;0;9;0;1820;0;0;0;0
03.01.19;21:30:00;1;617;12207;0;2;0;3077;0;0;0;0;3;0;1980;0;0;0;0;4;0;2260;0;0;0;0;5;0;5813;2;0;0;0;0;0;6;0;4294;2;0;0;0;0;0;7;0;3014;0;0;0;0;8;0;3595;0;0;0;0;9;0;1820;0;0;0;0
03.01.19;21:25:00;1;666;12155;0;2;0;3077;0;0;0;0;3;0;1980;0;0;0;0;4;0;2260;0;0;0;0;5;0;5813;2;0;0;0;0;0;6;0;4294;2;0;0;0;0;0;7;0;3014;0;0;0;0;8;0;3595;0;0;0;0;9;0;1820;0;0;0;0
03.01.19;21:20:00;1;854;12100;0;2;0;3077;0;0;0;0;3;0;1980;0;0;0;0;4;0;2260;0;0;0;0;5;0;5813;2;0;0;0;0;0;6;0;4294;2;0;0;0;0;0;7;0;3014;0;0;0;0;8;0;3595;0;0;0;0;9;0;1820;0;0;0;0
03.01.19;21:15:00;1;656;12020;0;2;0;3077;0;0;0;0;3;0;1980;0;0;0;0;4;0;2260;0;0;0;0;5;0;5813;2;0;0;0;0;0;6;0;4294;2;0;0;0;0;0;7;0;3014;0;0;0;0;8;0;3595;0;0;0;0;9;0;1820;0;0;0;0
03.01.19;21:10:00;1;609;11967;0;2;0;3077;0;0;0;0;3;0;1980;0;0;0;0;4;0;2260;0;0;0;0;5;0;5813;2;0;0;0;0;0;6;0;4294;2;0;0;0;0;0;7;0;3014;0;0;0;0;8;0;3595;0;0;0;0;9;0;1820;0;0;0;0
03.01.19;21:05:00;1;822;11915;0;2;0;3077;0;0;0;0;3;0;1980;0;0;0;0;4;0;2260;0;0;0;0;5;0;5813;2;0;0;0;0;0;6;0;4294;2;0;0;0;0;0;7;0;3014;0;0;0;0;8;0;3595;0;0;0;0;9;0;1820;0;0;0;0
03.01.19;21:00:00;1;624;11838;0;2;0;3077;0;0;0;0;3;0;1980;0;0;0;0;4;0;2260;0;0;0;0;5;0;5813;2;0;0;0;0;0;6;0;4294;2;0;0;0;0;0;7;0;3014;0;0;0;0;8;0;3595;0;0;0;0;9;0;1820;0;0;0;0
03.01.19;20:55:00;1;639;11785;0;2;0;3077;0;0;0;0;3;0;1980;0;0;0;0;4;0;2260;0;0;0;0;5;0;5813;2;0;0;0;0;0;6;0;4294;2;0;0;0;0;0;7;0;3014;0;0;0;0;8;0;3595;0;0;0;0;9;0;1820;0;0;0;0
03.01.19;20:50:00;1;634;11731;0;2;0;3077;0;0;0;0;3;0;1980;0;0;0;0;4;0;2260;0;0;0;0;5;0;5813;2;0;0;0;0;0;6;0;4294;2;0;0;0;0;0;7;0;3014;0;0;0;0;8;0;3595;0;0;0;0;9;0;1820;0;0;0;0
03.01.19;20:45:00;1;841;11678;0;2;0;3077;0;0;0;0;3;0;1980;0;0;0;0;4;0;2260;0;0;0;0;5;0;5813;2;0;0;0;0;0;6;0;4294;2;0;0;0;0;0;7;0;3014;0;0;0;0;8;0;3595;0;0;0;0;9;0;1820;0;0;0;0
03.01.19;20:40:00;1;629;11599;0;2;0;3077;0;0;0;0;3;0;1980;0;0;0;0;4;0;2260;0;0;0;0;5;0;5813;2;0;0;0;0;0;6;0;4294;2;0;0;0;0;0;7;0;3014;0;0;0;0;8;0;3595;0;0;0;0;9;0;1820;0;0;0;0
03.01.19;20:35:00;1;949;11546;0;2;0;3077;0;0;0;0;3;0;1980;0;0;0;0;4;0;2260;0;0;0;0;5;0;5813;2;0;0;0;0;0;6;0;4294;2;0;0;0;0;0;7;0;3014;0;0;0;0;8;0;3595;0;0;0;0;9;0;1820;0;0;0;0
03.01.19;20:30:00;1;1327;11448;0;2;0;3077;0;0;0;0;3;0;1980;0;0;0;0;4;0;2260;0;0;0;0;5;0;5813;2;0;0;0;0;0;6;0;4294;2;0;0;0;0;0;7;0;3014;0;0;0;0;8;0;3595;0;0;0;0;9;0;1820;0;0;0;0
03.01.19;20:25:00;1;2374;11320;0;2;0;3077;0;0;0;0;3;0;1980;0;0;0;0;4;0;2260;0;0;0;0;5;0;5813;2;0;0;0;0;0;6;0;4294;2;0;0;0;0;0;7;0;3014;0;0;0;0;8;0;3595;0;0;0;0;9;0;1820;0;0;0;0
03.01.19;20:20:00;1;2244;11128;0;2;0;3077;0;0;0;0;3;0;1980;0;0;0;0;4;0;2260;0;0;0;0;5;0;5813;2;0;0;0;0;0;6;0;4294;2;0;0;0;0;0;7;0;3014;0;0;0;0;8;0;3595;0;0;0;0;9;0;1820;0;0;0;0
03.01.19;20:15:00;1;2386;10916;0;2;0;3077;0;0;0;0;3;0;1980;0;0;0;0;4;0;2260;0;0;0;0;5;0;5813;2;0;0;0;0;0;6;0;4294;2;0;0;0;0;0;7;0;3014;0;0;0;0;8;0;3595;0;0;0;0;9;0;1820;0;0;0;0
03.01.19;20:10:00;1;1664;10728;0;2;0;3077;0;0;0;0;3;0;1980;0;0;0;0;4;0;2260;0;0;0;0;5;0;5813;2;0;0;0;0;0;6;0;4294;2;0;0;0;0;0;7;0;3014;0;0;0;0;8;0;3595;0;0;0;0;9;0;1820;0;0;0;0
03.01.19;20:05:00;1;2636;10556;0;2;0;3077;0;0;0;0;3;0;1980;0;0;0;0;4;0;2260;0;0;0;0;5;0;5813;2;0;0;0;0;0;6;0;4294;2;0;0;0;0;0;7;0;3014;0;0;0;0;8;0;3595;0;0;0;0;9;0;1820;0;0;0;0
03.01.19;20:00:00;1;2653;10336;0;2;0;3077;0;0;0;0;3;0;1980;0;0;0;0;4;0;2260;0;0;0;0;5;0;5813;2;0;0;0;0;0;6;0;4294;2;0;0;0;0;0;7;0;3014;0;0;0;0;8;0;3595;0;0;0;0;9;0;1820;0;0;0;0
03.01.19;19:55:00;1;684;10129;0;2;0;3077;0;0;0;0;3;0;1980;0;0;0;0;4;0;2260;0;0;0;0;5;0;5813;2;0;0;0;0;0;6;0;4294;2;0;0;0;0;0;7;0;3014;0;0;0;0;8;0;3595;0;0;0;0;9;0;1820;0;0;0;0
03.01.19;19:50:00;1;898;10057;0;2;0;3077;0;0;0;0;3;0;1980;0;0;0;0;4;0;2260;0;0;0;0;5;0;5813;2;0;0;0;0;0;6;0;4294;2;0;0;0;0;0;7;0;3014;0;0;0;0;8;0;3595;0;0;0;0;9;0;1820;0;0;0;0
03.01.19;19:45:00;1;654;9987;0;2;0;3077;0;0;0;0;3;0;1980;0;0;0;0;4;0;2260;0;0;0;0;5;0;5813;2;0;0;0;0;0;6;0;4294;2;0;0;0;0;0;7;0;3014;0;0;0;0;8;0;3595;0;0;0;0;9;0;1820;0;0;0;0
03.01.19;19:40:00;1;613;9932;0;2;0;3077;0;0;0;0;3;0;1980;0;0;0;0;4;0;2260;0;0;0;0;5;0;5813;2;0;0;0;0;0;6;0;4294;2;0;0;0;0;0;7;0;3014;0;0;0;0;8;0;3595;0;0;0;0;9;0;1820;0;0;0;0
03.01.19;19:35:00;1;800;9881;0;2;0;3077;0;0;0;0;3;0;1980;0;0;0;0;4;0;2260;0;0;0;0;5;0;5813;2;0;0;0;0;0;6;0;4294;2;0;0;0;0;0;7;0;3014;0;0;0;0;8;0;3595;0;0;0;0;9;0;1820;0;0;0;0
03.01.19;19:30:00;1;593;9804;0;2;0;3077;0;0;0;0;3;0;1980;0;0;0;0;4;0;2260;0;0;0;0;5;0;5813;2;0;0;0;0;0;6;0;4294;2;0;0;0;0;0;7;0;3014;0;0;0;0;8;0;3595;0;0;0;0;9;0;1820;0;0;0;0
03.01.19;19:25:00;1;613;9755;0;2;0;3077;0;0;0;0;3;0;1980;0;0;0;0;4;0;2260;0;0;0;0;5;0;5813;2;0;0;0;0;0;6;0;4294;2;0;0;0;0;0;7;0;3014;0;0;0;0;8;0;3595;0;0;0;0;9;0;1820;0;0;0;0
03.01.19;19:20:00;1;650;9703;0;2;0;3077;0;0;0;0;3;0;1980;0;0;0;0;4;0;2260;0;0;0;0;5;0;5813;2;0;0;0;0;0;6;0;4294;2;0;0;0;0;0;7;0;3014;0;0;0;0;8;0;3595;0;0;0;0;9;0;1820;0;0;0;0
03.01.19;19:15:00;1;1072;9648;0;2;0;3077;0;0;0;0;3;0;1980;0;0;0;0;4;0;2260;0;0;0;0;5;0;5813;2;0;0;0;0;0;6;0;4294;2;0;0;0;0;0;7;0;3014;0;0;0;0;8;0;3595;0;0;0;0;9;0;1820;0;0;0;0
03.01.19;19:10:00;1;665;9565;0;2;0;3077;0;0;0;0;3;0;1980;0;0;0;0;4;0;2260;0;0;0;0;5;0;5813;2;0;0;0;0;0;6;0;4294;2;0;0;0;0;0;7;0;3014;0;0;0;0;8;0;3595;0;0;0;0;9;0;1820;0;0;0;0
03.01.19;19:05:00;1;606;9510;0;2;0;3077;0;0;0;0;3;0;1980;0;0;0;0;4;0;2260;0;0;0;0;5;0;5813;2;0;0;0;0;0;6;0;4294;2;0;0;0;0;0;7;0;3014;0;0;0;0;8;0;3595;0;0;0;0;9;0;1820;0;0;0;0
03.01.19;19:00:00;1;861;9459;0;2;0;3077;0;0;0;0;3;0;1980;0;0;0;0;4;0;2260;0;0;0;0;5;0;5813;2;0;0;0;0;0;6;0;4294;2;0;0;0;0;0;7;0;3014;0;0;0;0;8;0;3595;0;0;0;0;9;0;1820;0;0;0;0
03.01.19;18:55:00;1;614;9381;0;2;0;3077;0;0;0;0;3;0;1980;0;0;0;0;4;0;2260;0;0;0;0;5;0;5813;2;0;0;0;0;0;6;0;4294;2;0;0;0;0;0;7;0;3014;0;0;0;0;8;0;3595;0;0;0;0;9;0;1820;0;0;0;0
03.01.19;18:50:00;1;619;9330;0;2;0;3077;0;0;0;0;3;0;1980;0;0;0;0;4;0;2260;0;0;0;0;5;0;5813;2;0;0;0;0;0;6;0;4294;2;0;0;0;0;0;7;0;3014;0;0;0;0;8;0;3595;0;0;0;0;9;0;1820;0;0;0;0
03.01.19;18:45:00;1;618;9278;0;2;0;3077;0;0;0;0;3;0;1980;0;0;0;0;4;0;2260;0;0;0;0;5;0;5813;2;0;0;0;0;0;6;0;4294;2;0;0;0;0;0;7;0;3014;0;0;0;0;8;0;3595;0;0;0;0;9;0;1820;0;0;0;0
03.01.19;18:40:00;1;785;9227;0;2;0;3077;0;0;0;0;3;0;1980;0;0;0;0;4;0;2260;0;0;0;0;5;0;5813;2;0;0;0;0;0;6;0;4294;2;0;0;0;0;0;7;0;3014;0;0;0;0;8;0;3595;0;0;0;0;9;0;1820;0;0;0;0
03.01.19;18:35:00;1;607;9149;0;2;0;3077;0;0;0;0;3;0;1980;0;0;0;0;4;0;2260;0;0;0;0;5;0;5813;2;0;0;0;0;0;6;0;4294;2;0;0;0;0;0;7;0;3014;0;0;0;0;8;0;3595;0;0;0;0;9;0;1820;0;0;0;0
03.01.19;18:30:00;1;1899;9098;0;2;0;3077;0;0;0;0;3;0;1980;0;0;0;0;4;0;2260;0;0;0;0;5;0;5813;2;0;0;0;0;0;6;0;4294;2;0;0;0;0;0;7;0;3014;0;0;0;0;8;0;3595;0;0;0;0;9;0;1820;0;0;0;0
03.01.19;18:25:00;1;812;8958;0;2;0;3077;0;0;0;0;3;0;1980;0;0;0;0;4;0;2260;0;0;0;0;5;0;5813;2;0;0;0;0;0;6;0;4294;2;0;0;0;0;0;7;0;3014;0;0;0;0;8;0;3595;0;0;0;0;9;0;1820;0;0;0;0
03.01.19;18:20:00;1;651;8880;0;2;0;3077;0;0;0;0;3;0;1980;0;0;0;0;4;0;2260;0;0;0;0;5;0;5813;2;0;0;0;0;0;6;0;4294;2;0;0;0;0;0;7;0;3014;0;0;0;0;8;0;3595;0;0;0;0;9;0;1820;0;0;0;0
03.01.19;18:15:00;1;680;8824;0;2;0;3077;0;0;0;0;3;0;1980;0;0;0;0;4;0;2260;0;0;0;0;5;0;5813;2;0;0;0;0;0;6;0;4294;2;0;0;0;0;0;7;0;3014;0;0;0;0;8;0;3595;0;0;0;0;9;0;1820;0;0;0;0
03.01.19;18:10:00;1;811;8768;0;2;0;3077;0;0;0;0;3;0;1980;0;0;0;0;4;0;2260;0;0;0;0;5;0;5813;2;0;0;0;0;0;6;0;4294;2;0;0;0;0;0;7;0;3014;0;0;0;0;8;0;3595;0;0;0;0;9;0;1820;0;0;0;0
03.01.19;18:05:00;1;890;8697;0;2;0;3077;0;0;0;0;3;0;1980;0;0;0;0;4;0;2260;0;0;0;0;5;0;5813;2;0;0;0;0;0;6;0;4294;2;0;0;0;0;0;7;0;3014;0;0;0;0;8;0;3595;0;0;0;0;9;0;1820;0;0;0;0
03.01.19;18:00:00;1;1058;8594;0;2;0;3077;0;0;0;0;3;0;1980;0;0;0;0;4;0;2260;0;0;0;0;5;0;5813;2;0;0;0;0;0;6;0;4294;2;0;0;0;0;0;7;0;3014;0;0;0;0;8;0;3595;0;0;0;0;9;0;1820;0;0;0;0
03.01.19;17:55:00;1;1088;8503;0;2;0;3077;0;0;0;0;3;0;1980;0;0;0;0;4;0;2260;0;0;0;0;5;0;5813;2;0;0;0;0;0;6;0;4294;2;0;0;0;0;0;7;0;3014;0;0;0;0;8;0;3595;0;0;0;0;9;0;1820;0;0;0;0
03.01.19;17:50:00;1;1260;8393;0;2;0;3077;0;0;0;0;3;0;1980;0;0;0;0;4;0;2260;0;0;0;0;5;0;5813;2;0;0;0;0;0;6;0;4294;2;0;0;0;0;0;7;0;3014;0;0;0;0;8;0;3595;0;0;0;0;9;0;1820;0;0;0;0
03.01.19;17:45:00;1;1451;8314;0;2;0;3077;0;0;0;0;3;0;1980;0;0;0;0;4;0;2260;0;0;0;0;5;0;5813;2;0;0;0;0;0;6;0;4294;2;0;0;0;0;0;7;0;3014;0;0;0;0;8;0;3595;0;0;0;0;9;0;1820;0;0;0;0
03.01.19;17:40:00;1;1196;8213;0;2;0;3077;0;0;0;0;3;0;1980;0;0;0;0;4;0;2260;0;0;0;0;5;0;5813;2;0;0;0;0;0;6;0;4294;2;0;0;0;0;0;7;0;3014;0;0;0;0;8;0;3595;0;0;0;0;9;0;1820;0;0;0;0
03.01.19;17:35:00;1;710;8116;0;2;0;3077;0;0;0;0;3;0;1980;0;0;0;0;4;0;2260;0;0;0;0;5;0;5813;2;0;0;0;0;0;6;0;4294;2;0;0;0;0;0;7;0;3014;0;0;0;0;8;0;3595;0;0;0;0;9;0;1820;0;0;0;0
03.01.19;17:30:00;1;669;8056;0;2;0;3077;0;0;0;0;3;0;1980;0;0;0;0;4;0;2260;0;0;0;0;5;0;5813;2;0;0;0;0;0;6;0;4294;2;0;0;0;0;0;7;0;3014;0;0;0;0;8;0;3595;0;0;0;0;9;0;1820;0;0;0;0
03.01.19;17:25:00;1;928;7998;0;2;0;3077;0;0;0;0;3;0;1980;0;0;0;0;4;0;2260;0;0;0;0;5;0;5813;2;0;0;0;0;0;6;0;4294;2;0;0;0;0;0;7;0;3014;0;0;0;0;8;0;3595;0;0;0;0;9;0;1820;0;0;0;0
03.01.19;17:20:00;1;736;7913;0;2;0;3077;0;0;0;0;3;0;1980;0;0;0;0;4;0;2260;0;0;0;0;5;0;5813;2;0;0;0;0;0;6;0;4294;2;0;0;0;0;0;7;0;3014;0;0;0;0;8;0;3595;0;0;0;0;9;0;1820;0;0;0;0
03.01.19;17:15:00;1;709;7849;0;2;0;3077;0;0;0;0;3;0;1980;0;0;0;0;4;0;2260;0;0;0;0;5;0;5813;2;0;0;0;0;0;6;0;4294;2;0;0;0;0;0;7;0;3014;0;0;0;0;8;0;3595;0;0;0;0;9;0;1820;0;0;0;0
03.01.19;17:10:00;1;781;7769;0;2;0;3077;0;0;0;0;3;0;1980;0;0;0;0;4;0;2260;0;0;0;0;5;0;5813;2;0;0;0;0;0;6;0;4294;2;0;0;0;0;0;7;0;3014;0;0;0;0;8;0;3595;0;0;0;0;9;0;1820;0;0;0;0
03.01.19;17:05:00;1;1213;7700;0;2;0;3077;0;0;0;0;3;0;1980;0;0;0;0;4;0;2260;0;0;0;0;5;0;5813;2;0;0;0;0;0;6;0;4294;2;0;0;0;0;0;7;0;3014;0;0;0;0;8;0;3595;0;0;0;0;9;0;1820;0;0;0;0
03.01.19;17:00:00;1;3032;7588;0;2;0;3077;0;0;0;0;3;0;1980;0;0;0;0;4;0;2260;0;0;0;0;5;0;5813;2;0;0;0;0;0;6;0;4294;2;0;0;0;0;0;7;0;3014;0;0;0;0;8;0;3595;0;0;0;0;9;0;1820;0;0;0;0
03.01.19;16:55:00;1;2183;7338;0;2;0;3077;0;0;0;0;3;0;1980;0;0;0;0;4;0;2260;0;0;0;0;5;0;5813;2;0;0;0;0;0;6;0;4294;2;0;0;0;0;0;7;0;3014;0;0;0;0;8;0;3595;0;0;0;0;9;0;1820;0;0;0;0
03.01.19;16:50:00;1;963;7204;0;2;0;3077;0;0;0;0;3;0;1980;0;0;0;0;4;0;2260;0;0;0;0;5;0;5813;2;0;0;0;0;0;6;0;4294;2;0;0;0;0;0;7;0;3014;0;0;0;0;8;0;3595;0;0;0;0;9;0;1820;0;0;0;0
03.01.19;16:45:00;1;554;7131;0;2;0;3077;0;0;83;2;3;0;1980;0;0;226;9;4;0;2260;0;0;0;0;5;0;5813;2;0;0;0;0;0;6;0;4294;2;0;0;0;0;0;7;0;3014;0;0;0;0;8;0;3595;0;0;0;0;9;0;1820;0;0;0;0
03.01.19;16:40:00;1;541;7085;0;2;0;3077;6;0;289;7;3;0;1980;6;0;319;11;4;0;2260;0;0;59;3;5;0;5813;2;0;0;0;0;0;6;0;4294;1;0;0;0;0;0;7;0;3014;0;0;0;0;8;0;3595;0;0;0;0;9;0;1820;0;0;0;0
03.01.19;16:35:00;1;773;7038;0;2;0;3077;6;0;312;7;3;0;1980;6;0;369;11;4;0;2260;1;0;89;4;5;0;5813;2;306;309;95;93;10;6;0;4294;2;0;0;0;0;0;7;0;3014;0;0;0;0;8;0;3595;0;0;0;0;9;0;1820;0;0;0;0
03.01.19;16:30:00;1;502;6967;0;2;0;3077;6;0;338;7;3;0;1980;6;0;399;11;4;0;2260;1;0;113;4;5;0;5813;1;0;0;267;286;14;6;0;4294;1;4;3;150;342;14;7;0;3014;0;0;37;1;8;0;3595;0;0;42;1;9;0;1820;0;0;131;3
03.01.19;16:25:00;1;503;6925;0;2;0;3077;6;0;361;8;3;0;1980;6;2;424;11;4;0;2260;1;0;141;5;5;0;5813;23;0;3;395;410;17;6;0;4294;23;4;5;181;517;16;7;0;3014;6;0;272;10;8;0;3595;6;0;278;9;9;0;1820;6;0;298;7
03.01.19;16:20:00;1;745;6883;0;2;0;3077;6;0;369;8;3;0;1980;6;2;426;11;4;0;2260;1;0;152;5;5;0;5813;1;0;0;410;516;17;6;0;4294;23;4;4;181;536;16;7;0;3014;6;0;292;10;8;0;3595;6;0;298;9;9;0;1820;6;0;313;7
03.01.19;16:15:00;1;548;6813;0;2;0;3077;6;0;386;8;3;0;1980;6;2;462;11;4;0;2260;1;0;182;5;5;6;5813;1;1;4;412;623;18;6;0;4294;1;7;10;255;563;17;7;0;3014;6;0;347;10;8;0;3595;6;0;354;10;9;0;1820;6;0;375;7
03.01.19;16:10:00;1;604;6768;0;2;0;3077;6;0;400;8;3;0;1980;6;2;486;12;4;0;2260;1;0;208;6;5;7;5813;1;1;2;423;666;18;6;0;4294;23;5;5;225;582;17;7;0;3014;6;0;396;10;8;0;3595;6;0;386;10;9;0;1820;6;0;418;7
03.01.19;16:05:00;1;644;6716;0;2;0;3077;6;0;413;8;3;1;1980;6;3;500;12;4;0;2260;3;0;216;6;5;56;5812;1;13;17;401;630;19;6;9;4294;23;8;11;537;569;18;7;0;3014;6;1;426;10;8;0;3595;6;2;429;10;9;1;1820;6;0;457;7
03.01.19;16:00:00;1;747;6657;0;2;1;3077;6;5;412;8;3;2;1979;4;4;493;12;4;0;2260;3;0;229;6;5;90;5808;4;25;27;392;614;19;6;56;4293;4;27;38;460;467;19;7;0;3014;6;1;451;11;8;0;3595;6;1;455;10;9;0;1820;6;1;499;7
03.01.19;15:55:00;1;509;6592;0;2;2;3077;4;7;415;9;3;3;1979;3;12;492;12;4;0;2260;3;0;230;6;5;103;5800;4;36;33;392;614;19;6;64;4288;4;21;29;460;467;19;7;1;3014;6;4;436;11;8;1;3595;6;2;462;10;9;0;1820;6;2;512;7
03.01.19;15:50:00;1;510;6548;0;2;7;3077;6;14;407;9;3;0;1979;6;5;525;12;4;0;2260;3;0;225;7;5;109;5792;4;42;38;392;614;19;6;70;4282;4;30;40;460;467;19;7;0;3014;6;3;469;11;8;2;3595;6;3;472;10;9;1;1820;6;2;520;7
03.01.19;15:45:00;1;1083;6501;0;2;5;3076;6;10;418;9;3;3;1979;6;12;492;12;4;0;2260;3;0;210;7;5;119;5783;4;48;43;392;614;19;6;77;4276;4;33;43;460;467;19;7;1;3014;4;4;468;11;8;0;3595;4;5;474;11;9;6;1820;3;7;491;8
03.01.19;15:40:00;1;546;6432;0;2;7;3076;6;11;423;9;3;2;1979;6;7;538;12;4;6;2260;3;7;200;7;5;143;5773;4;60;57;392;614;19;6;95;4269;4;38;49;460;467;19;7;6;3014;3;12;468;11;8;5;3595;3;14;468;11;9;1;1819;6;4;540;8
03.01.19;15:35:00;1;510;6387;0;2;36;3075;6;56;374;9;3;3;1978;6;10;536;12;4;23;2259;3;23;200;7;5;151;5761;4;61;61;392;614;19;6;104;4261;4;47;62;460;467;19;7;10;3013;6;18;460;12;8;5;3594;6;8;486;11;9;1;1819;6;5;539;8
03.01.19;15:30:00;1;748;6344;0;2;61;3072;4;86;377;10;3;4;1978;6;9;543;12;4;30;2257;3;31;198;7;5;188;5748;4;86;73;392;614;19;6;122;4253;4;60;77;460;467;19;7;21;3012;6;35;446;12;8;22;3594;6;33;448;11;9;4;1819;6;5;554;8
03.01.19;15:25:00;1;513;6275;0;2;81;3067;4;112;381;10;3;15;1978;3;28;521;13;4;41;2255;3;43;198;7;5;232;5732;4;114;99;392;614;19;6;147;4243;4;59;71;460;466;19;7;54;3011;4;87;447;12;8;54;3592;4;90;457;12;9;8;1819;6;10;559;8
03.01.19;15:20:00;1;548;6232;0;2;103;3061;4;129;370;10;3;20;1976;6;31;548;13;4;58;2252;3;60;198;7;5;265;5712;4;127;110;392;614;19;6;174;4230;4;89;105;460;467;19;7;83;3006;4;110;444;12;8;83;3588;4;113;445;12;9;7;1818;6;10;571;8
03.01.19;15:15:00;1;588;6170;0;2;134;3052;4;162;384;10;3;72;1974;4;111;509;13;4;84;2247;3;88;199;7;5;325;5690;4;161;135;392;614;19;6;212;4215;4;110;122;460;467;19;7;115;2999;4;147;447;12;8;100;3581;4;143;486;12;9;12;1818;4;14;573;8
03.01.19;15:10:00;1;853;6121;0;2;134;3041;4;163;378;10;3;73;1968;4;110;510;13;4;85;2240;3;89;199;7;5;329;5663;4;161;138;392;614;19;6;211;4198;4;94;108;460;467;19;7;101;2990;4;141;400;12;8;106;3572;4;146;465;12;9;11;1816;6;14;579;9
03.01.19;15:05:00;1;615;6043;0;2;137;3030;4;169;389;10;3;79;1962;4;114;485;13;4;93;2233;3;96;218;8;5;340;5635;4;176;143;392;614;19;6;221;4180;4;94;107;460;467;19;7;124;2982;4;151;405;12;8;127;3563;4;153;452;12;9;28;1815;6;36;547;9
03.01.19;15:00:00;1;655;5991;0;2;172;3018;4;205;392;10;3;100;1956;4;136;495;13;4;130;2226;5;136;232;8;5;411;5607;4;203;180;401;614;19;6;290;4161;4;126;146;512;548;19;7;164;2971;4;196;444;12;8;162;3553;4;197;451;12;9;86;1813;4;111;495;9
03.01.19;14:55:00;1;569;5939;0;2;210;3004;4;244;400;11;3;127;1947;4;164;510;13;4;165;2215;5;172;235;8;5;485;5572;4;232;200;406;669;19;6;354;4137;4;170;184;589;576;19;7;213;2958;4;239;444;12;8;210;3539;4;243;443;12;9;109;1806;4;138;508;9
03.01.19;14:50:00;1;569;5865;0;2;252;2987;4;286;396;11;3;151;1937;4;192;499;13;4;199;2201;5;208;233;8;5;564;5531;4;286;244;419;652;19;6;423;4107;4;209;228;579;576;19;7;257;2940;4;289;460;12;8;255;3522;4;290;463;12;9;132;1797;4;162;543;9
03.01.19;14:45:00;1;569;5815;0;2;264;2966;4;299;399;11;3;160;1924;4;201;501;14;4;214;2185;5;223;237;8;5;579;5484;4;301;248;414;632;19;6;447;4071;4;220;232;600;572;19;7;272;2919;4;300;454;12;8;220;3501;4;248;381;9;9;145;1786;4;172;524;9
03.01.19;14:40:00;1;608;5754;0;2;288;2944;4;322;394;11;3;175;1911;4;214;494;14;4;238;2167;5;247;241;8;5;631;5436;4;312;274;410;666;19;6;477;4034;4;253;272;598;577;19;7;296;2896;4;335;472;12;8;290;3478;4;337;484;12;9;161;1774;4;188;526;9
03.01.19;14:35:00;1;513;5705;0;2;317;2920;4;353;400;11;3;194;1896;4;233;517;14;4;258;2147;5;268;239;8;5;697;5383;4;341;295;415;690;19;6;515;3994;4;247;260;595;578;19;7;326;2871;4;362;477;12;8;330;3454;4;371;484;12;9;179;1760;4;204;518;10
03.01.19;14:30:00;1;513;5636;0;2;365;2894;4;402;412;11;3;223;1880;4;266;514;14;4;307;2125;5;320;242;8;5;790;5325;4;391;335;415;698;19;6;595;3950;4;298;304;594;585;19;7;391;2844;4;427;477;12;8;389;3426;4;430;471;12;9;210;1746;4;240;538;10
03.01.19;14:25:00;1;610;5593;0;2;370;2863;4;408;408;11;3;227;1862;4;269;518;14;4;307;2100;5;320;238;8;5;790;5259;4;404;342;425;689;19;6;599;3901;4;328;337;607;585;19;7;396;2812;4;423;461;12;8;390;3394;4;428;462;12;9;210;1728;4;239;532;10
03.01.19;14:20:00;1;562;5542;0;2;416;2832;4;455;417;12;3;256;1843;4;302;520;14;4;350;2074;5;365;243;8;5;874;5192;4;450;381;429;698;19;6;663;3850;4;313;331;605;587;19;7;446;2778;4;484;477;12;8;443;3361;4;486;469;12;9;237;1710;4;270;518;10
03.01.19;14:15:00;1;830;5494;0;2;479;2798;4;523;416;12;3;296;1821;4;346;526;14;4;410;2045;5;427;245;8;5;997;5119;4;506;431;429;697;19;6;750;3795;4;390;398;607;597;19;7;525;2741;4;561;490;12;8;518;3325;4;562;487;12;9;280;1691;4;315;539;10
03.01.19;14:10:00;1;555;5422;0;2;486;2758;4;530;413;12;3;297;1797;4;346;536;14;4;413;2011;5;430;249;8;5;1010;5035;4;515;431;436;724;19;6;766;3732;4;417;419;610;597;19;7;539;2698;4;567;492;12;8;522;3282;4;563;467;12;9;282;1667;4;318;538;10
03.01.19;14:05:00;1;720;5373;0;2;545;2718;4;587;415;12;3;336;1772;4;381;510;14;4;467;1977;5;486;247;8;5;1118;4951;4;579;482;431;690;19;6;845;3668;4;431;434;611;600;19;7;584;2653;4;638;482;12;8;599;3238;4;642;487;12;9;321;1644;4;356;541;10
03.01.19;14:00:00;1;918;5313;0;2;531;2672;4;573;414;12;3;326;1744;4;376;536;14;4;453;1938;5;472;245;8;5;1117;4857;4;569;482;436;700;19;6;837;3598;4;399;407;611;599;19;7;567;2604;4;623;487;12;8;589;3188;4;626;497;12;9;313;1617;4;349;543;10
03.01.19;13:55:00;1;515;5250;0;2;562;2628;4;607;414;12;3;346;1717;4;396;526;14;4;482;1900;5;502;247;8;5;1186;4765;4;605;507;435;706;19;6;886;3528;4;459;452;617;603;18;7;629;2557;4;668;493;12;8;617;3139;4;676;494;12;9;334;1591;4;372;548;10
03.01.19;13:50:00;1;760;5207;0;2;615;2582;4;661;421;12;3;385;1688;4;431;524;14;4;534;1860;5;556;249;8;5;1277;4666;4;660;560;435;711;19;6;965;3454;4;503;495;617;612;18;7;693;2505;4;733;504;12;8;693;3088;4;744;502;12;9;371;1563;4;415;547;10
03.01.19;13:45:00;1;511;5137;0;2;640;2530;4;684;426;12;3;399;1656;4;450;530;14;4;559;1816;5;582;248;8;5;1348;4559;4;699;584;435;718;19;6;1003;3373;4;545;534;620;617;18;7;713;2447;4;766;506;12;8;731;3030;4;783;495;12;9;393;1533;4;434;548;10
03.01.19;13:40:00;1;690;5092;0;2;688;2477;4;735;418;12;3;429;1623;4;480;532;14;4;604;1769;5;630;249;8;5;1422;4446;4;742;615;439;725;19;6;1067;3289;4;573;550;619;619;18;7;770;2388;4;826;507;12;8;790;2969;4;836;495;12;9;422;1500;4;467;548;10